Location: Unspecified
(52.4292°N, 19.3359°E)
Time: 23:57:29
(UTC+02:00)

A-11 Canister half - Pass Details

Date: 22 May 2024
Orbit: 1515 x 1685 km, 47.2° (Epoch: 19 June)

Event Time Altitude Azimuth Distance (km) Brightness Sun altitude
Rises 03:07:59 0° 223° (SW) 4,762 - -10.3°
Reaches altitude 10° 03:11:18 10° 217° (SW) 3,756 - -10.0°
Exits shadow 03:11:46 12° 216° (SW) 3,617 10.2 -9.9°
Maximum altitude 03:19:58 43° 150° (SSE) 2,057 9.5 -9.2°
Drops below altitude 10° 03:28:28 10° 84° (E) 3,683 11.7 -8.4°
Sets 03:31:39 0° 78° (ENE) 4,662 12.5 -8.1°
